Location: Bay Shore Mobile Home Park
(38.5762°N, 75.0841°W)
Time: 07:58:38
(UTC+00:00)

Tsikada Rocket - Pass Details

Date: 15 November 2025
Orbit: 958 x 1007 km, 82.9° (Epoch: 04 December)

Event Time Altitude Azimuth Distance (km) Brightness Sun altitude
Rises 22:06:40 0° 356° (N) 3,744 6.9 -4.4°
Reaches altitude 10° 22:09:16 10° 360° (N) 2,788 6.2 -4.9°
Maximum altitude 22:15:37 62° 81° (E) 1,118 4.1 -6.0°
Drops below altitude 10° 22:21:51 10° 161° (SSE) 2,746 6.4 -7.2°
Sets 22:24:23 0° 165° (SSE) 3,684 7.1 -7.7°
